Flag for Germany Weather past 2 weeks in Dorsten, North Rhine-Westphalia, Germany

Now
36 °F

Fog.


Feels Like: 33 °F
Forecast: 35 / 41 °F
Wind: 3 mph from Southwest

Location: Essen

Current Time: Jan 26, 2015 at 7:24:01 AM

Latest Report: Jan 26, 2015 at 7:00 AM


Visibility: 1 mi

Pressure: 30.21 "Hg

Humidity: 100%

Dew point: 36 °F

Location of DorstenLocation

Historic Weather in Dorsten — Graph

°F

Dorsten temperature yesterday

Maximum temperature yesterday: 36 °F (at 6:00 PM)
Minimum temperature yesterday: 30 °F (at 3:00 AM)
Average temperature yesterday: 33 °F

Past Weeks' High & Low Weather Summary

 TemperatureHumidityPressure
High52 °F (Jan 13, 12:00 PM)100% (Jan 17, 7:00 AM)30.42 "Hg (Jan 17, 7:00 AM)
Low29 °F (Jan 21, 8:00 AM)61% (Jan 21, 3:00 PM)29.41 "Hg (Jan 15, 4:00 PM)
Average37 °F85%29.96 "Hg
* Reported Jan 11 6:00 AM — Jan 26 6:00 AM, Dorsten, Weather by CustomWeather, © 2014

Note: Actual official high and low records may vary slightly from our data, if they occured in-between our weather recording intervals... More about our weather records

Advertising

Dorsten weather history for previous 24 hours

 ConditionsComfort  
Time TempWeatherWind HumidityBarometerVisibility
6:00 AM
Jan 26
35 °FLow clouds.5 mph100%30.22 "Hg2 mi
5:00 AM35 °FDrizzle. Low clouds.3 mph100%30.24 "Hg2 mi
4:00 AM35 °FDrizzle. Low clouds.5 mph100%30.27 "Hg2 mi
3:00 AM35 °FLight freezing rain. Low clouds.3 mph100%30.30 "Hg1 mi
2:00 AM35 °FLight freezing rain. Low clouds.2 mph100%30.32 "Hg1 mi
1:00 AM35 °FLight freezing rain. Low clouds.2 mph100%30.34 "Hg1 mi
12:00 AM35 °FDrizzle. Low clouds.2 mph100%30.35 "Hg1 mi
11:00 PM
Jan 25
35 °FLight freezing rain. Low clouds.2 mph100%30.35 "Hg1 mi
10:00 PM35 °FLight rain. Low clouds.3 mph100%30.36 "Hg1 mi
9:00 PM35 °FDrizzle. Low clouds.3 mph100%30.37 "Hg1 mi
8:00 PM35 °FDrizzle. Low clouds.3 mph100%30.38 "Hg0 mi
7:00 PM35 °FLight freezing rain. Low clouds.3 mph100%30.39 "Hg0 mi
6:00 PM36 °FLight freezing rain. Low clouds.3 mph100%30.38 "Hg1 mi
5:00 PM35 °FLight freezing rain. Low clouds.3 mph100%30.37 "Hg1 mi
4:00 PM35 °FLight rain. Low clouds.3 mph100%30.38 "Hg1 mi
3:00 PM35 °FLight rain. Low clouds.2 mph100%30.38 "Hg1 mi
2:00 PM35 °FFog.3 mph100%30.38 "Hg1 mi
1:00 PM35 °FFog.3 mph99%30.40 "Hg1 mi
12:00 PM34 °FLow clouds.3 mph100%30.42 "Hg1 mi
11:00 AM33 °FLow clouds.2 mph100%30.42 "Hg1 mi
10:00 AM32 °FLow clouds.3 mph100%30.42 "Hg1 mi
9:00 AM31 °FFog.3 mph100%30.42 "Hg1 mi
8:00 AM31 °FOvercast.3 mph100%30.40 "Hg1 mi
7:00 AM30 °FLow clouds.2 mph100%30.39 "Hg1 mi
Weather by CustomWeather, © 2014

See weather overviewHow to use our weather pages